Flag for Iran Weather past 2 weeks in Mashhad, Iran

43 °F


Feels Like: 40 °F
Forecast: 33 / 61 °F
Wind: 5 mph from West

Location: Mashhad Airport

Current Time: Nov 29, 2015 at 10:07:18 PM

Latest Report: Nov 29, 2015 at 9:30 PM

Visibility: 3 mi

Pressure: 30.12 "Hg (26.71 "Hg at 981m altitude)

Humidity: 76%

Dew point: 36 °F

Location of MashhadLocation

Historic Weather in Mashhad — Graph


Mashhad temperature yesterday

Maximum temperature yesterday: 68 °F (at 1:00 PM)
Minimum temperature yesterday: 41 °F (at 4:00 AM)
Average temperature yesterday: 53 °F

Past Weeks' High & Low Weather Summary

High70 °F (Nov 17, 1:30 PM)100% (Nov 19, 3:00 AM)30.39 "Hg (Nov 19, 3:00 AM)
Low34 °F (Nov 16, 5:00 AM)10% (Nov 27, 3:00 PM)29.89 "Hg (Nov 17, 2:00 PM)
Average47 °F64%30.15 "Hg
* Reported Nov 14 8:30 PM — Nov 29 9:00 PM, Mashhad, Weather by CustomWeather, © 2015

Note: Actual official high and low records may vary slightly from our data, if they occured in-between our weather recording intervals... More about our weather records


Mashhad weather history for previous 24 hours

Time TempWeatherWind HumidityBarometerVisibility
9:00 PM
Sun, Nov 29
43 °FClear.5 mph76%30.12 "Hg4 mi
8:30 PM43 °FClear.No wind71%30.12 "Hg4 mi
8:00 PM45 °FClear.7 mph61%30.12 "Hg4 mi
7:30 PM46 °FClear.5 mph57%30.15 "Hg6 mi
7:00 PM46 °FClear.5 mph57%30.15 "Hg5 mi
6:30 PM48 °FClear.5 mph58%30.15 "Hg4 mi
6:00 PM48 °FHaze.5 mph58%30.12 "Hg3 mi
5:30 PM48 °FHaze.7 mph62%30.12 "Hg2 mi
5:00 PM50 °FHaze.7 mph54%30.12 "Hg2 mi
4:30 PM52 °FHaze.5 mph50%30.12 "Hg2 mi
4:00 PM54 °FHaze.7 mph44%30.12 "Hg3 mi
3:30 PM55 °FHaze.5 mph44%30.12 "Hg3 mi
3:00 PM57 °FHaze.5 mph41%30.12 "Hg2 mi
2:30 PM57 °FHaze.No wind48%30.12 "Hg2 mi
2:00 PM55 °FHaze.5 mph51%30.12 "Hg3 mi
1:30 PM55 °FHaze.No wind51%30.12 "Hg3 mi
1:00 PM54 °FHaze.7 mph58%30.15 "Hg2 mi
12:30 PM52 °FHaze.5 mph62%30.15 "Hg2 mi
12:00 PM50 °FHaze.No wind71%30.18 "Hg2 mi
11:30 AM45 °FFog.No wind100%30.21 "Hg2 mi
11:00 AM43 °FFog.No wind93%30.21 "Hg2 mi
10:30 AM39 °FFog.5 mph100%30.24 "Hg1 mi
10:00 AM39 °FFog.5 mph100%30.24 "Hg1 mi
9:30 AM37 °FFog.No wind100%30.24 "Hg1 mi
9:00 AM37 °FFog.No wind100%30.24 "Hg0 mi
8:30 AM37 °FFog.5 mph100%30.24 "Hg0 mi
8:00 AM37 °FFog.No wind100%30.24 "Hg0 mi
7:30 AM37 °FFog.No wind100%30.24 "Hg0 mi
7:00 AM37 °FFog.No wind100%30.21 "Hg0 mi
6:30 AM37 °FFog.5 mph100%30.21 "Hg0 mi
6:00 AM37 °FFog.5 mph100%30.21 "Hg0 mi
5:30 AM37 °FFog.5 mph100%30.18 "Hg0 mi
5:00 AM37 °FFog.5 mph100%30.18 "Hg0 mi
4:30 AM37 °FFog.5 mph100%30.18 "Hg0 mi
4:00 AM37 °FFog.7 mph100%30.18 "Hg0 mi
3:30 AM37 °FClear.No wind93%30.18 "Hg10 mi
3:00 AM37 °FClear.No wind93%30.18 "Hg10 mi
2:30 AM37 °FClear.No wind93%30.18 "Hg10 mi
1:30 AM41 °FClear.5 mph87%30.18 "Hg10 mi
1:00 AM43 °FClear.No wind81%30.15 "Hg10 mi
12:00 AM43 °FClear.No wind71%30.15 "Hg10 mi
11:30 PM
Sat, Nov 28
43 °FClear.7 mph66%30.15 "Hg10 mi
11:00 PM45 °FClear.9 mph53%30.15 "Hg10 mi
10:30 PM45 °FClear.7 mph46%30.15 "Hg10 mi
10:00 PM46 °FClear.5 mph40%30.15 "Hg10 mi
Weather by CustomWeather, © 2015

See weather overviewHow to use our weather pages